Weather History for Oxford, MS

Change the Weather History Date:

Monday, October 28, 2013

  Actual Average Record
Temperature  
Mean Temperature 59 °F -  
Max Temperature 68 °F 70 °F 85 °F (1940)
Min Temperature 50 °F 42 °F 29 °F (1957)
Degree Days  
Heating Degree Days 6    
Growing Degree Days 9 (Base 50)    
Moisture  
Dew Point 55 °F    
Average Humidity 89    
Maximum Humidity 100    
Minimum Humidity 60    
Precipitation  
Precipitation 0.00 in - - ()
Sea Level Pressure  
Sea Level Pressure 30.19 in    
Wind  
Wind Speed 2 mph (South)    
Max Wind Speed 6 mph    
Max Gust Speed -    
Visibility 6 miles    
Events Fog    
Averages and records for this station are not official NWS values.
T = Trace of Precipitation, MM = Missing Value Source: NWS Daily Summary

Daily Weather History Graph

Daily Weather History Graph

Search for Another Location

Airport:

Trip Planner

Search our weather history database for the weather conditions in past years. The results will help you decide how hot, cold, wet, or windy it might be!

Date:

Astronomy

Oct. 28, 2013 Rise Set
Actual Time 7:14 AM CDT 6:08 PM CDT
Civil Twilight 6:49 AM CDT 6:34 PM CDT
Nautical Twilight 6:19 AM CDT 7:03 PM CDT
Astronomical Twilight 5:50 AM CDT 7:33 PM CDT
Moon 1:22 AM CDT (10/28) 2:36 PM CDT (10/28)
Length of Visible Light 11h 45m
Length of Day
10h 53m
Waning Crescent, 34% of the Moon is Illuminated
Oct 28
Waning Crescent
Nov 3
New
Nov 9
First Quarter
Nov 17
Full
Nov 25
Last Quarter

Hourly Weather History & Observations

Time (CDT) Temp. Dew Point Humidity Pressure Visibility Wind Dir Wind Speed Gust Speed Precip Events Conditions
12:15 AM 55.4 °F 55.4 °F 100% 30.11 in 6.0 mi WSW 4.6 mph - N/A   Overcast
12:35 AM 55.4 °F 55.4 °F 100% 30.11 in 5.0 mi WSW 3.5 mph - N/A   Overcast
12:55 AM 55.4 °F 55.4 °F 100% 30.11 in 6.0 mi WSW 3.5 mph - N/A   Overcast
1:15 AM 55.4 °F 55.4 °F 100% 30.11 in 6.0 mi WSW 3.5 mph - N/A   Overcast
1:35 AM 55.4 °F 55.4 °F 100% 30.11 in 7.0 mi WSW 3.5 mph - N/A   Overcast
1:55 AM 55.4 °F 53.6 °F 94% 30.11 in 4.0 mi Calm Calm - N/A   Mostly Cloudy
2:15 AM 55.4 °F 53.6 °F 94% 30.12 in 4.0 mi SW 3.5 mph - N/A   Mostly Cloudy
2:35 AM 55.4 °F 53.6 °F 94% 30.12 in 5.0 mi SW 4.6 mph - N/A   Overcast
2:55 AM 53.6 °F 53.6 °F 100% 30.12 in 4.0 mi WSW 5.8 mph - N/A   Overcast
3:15 AM 53.6 °F 53.6 °F 100% 30.12 in 3.0 mi Calm Calm - N/A   Overcast
3:35 AM 53.6 °F 53.6 °F 100% 30.12 in 1.8 mi Calm Calm - N/A   Overcast
3:55 AM 53.6 °F 53.6 °F 100% 30.13 in 0.2 mi Calm Calm - N/A Fog Fog
4:15 AM 53.6 °F 53.6 °F 100% 30.13 in 0.2 mi Calm Calm - N/A Fog Fog
4:35 AM 53.6 °F 51.8 °F 94% 30.13 in 0.2 mi Calm Calm - N/A Fog Fog
4:55 AM 53.6 °F 51.8 °F 94% 30.14 in 0.2 mi Calm Calm - N/A Fog Fog
5:15 AM 53.6 °F 53.6 °F 100% 30.15 in 0.2 mi Calm Calm - N/A Fog Fog
5:35 AM 53.6 °F 51.8 °F 94% 30.15 in 0.2 mi Calm Calm - N/A Fog Fog
5:55 AM 51.8 °F 51.8 °F 100% 30.16 in 0.2 mi Calm Calm - N/A Fog Fog
6:15 AM 51.8 °F 51.8 °F 100% 30.16 in 0.2 mi Calm Calm - N/A Fog Fog
6:35 AM 51.8 °F 51.8 °F 100% 30.17 in 0.2 mi Calm Calm - N/A Fog Fog
6:55 AM 51.8 °F 51.8 °F 100% 30.18 in 0.2 mi Calm Calm - N/A Fog Fog
7:15 AM 51.8 °F 50.0 °F 94% 30.19 in 0.2 mi Calm Calm - N/A Fog Fog
7:35 AM 50.0 °F 50.0 °F 100% 30.20 in 0.2 mi NNE 3.5 mph - N/A Fog Fog
7:55 AM 51.8 °F 50.0 °F 94% 30.21 in 0.2 mi Calm Calm - N/A Fog Fog
8:15 AM 51.8 °F 51.8 °F 100% 30.22 in 0.2 mi NE 3.5 mph - N/A Fog Fog
8:35 AM 51.8 °F 51.8 °F 100% 30.23 in 0.2 mi Calm Calm - N/A Fog Fog
8:55 AM 53.6 °F 53.6 °F 100% 30.23 in 0.2 mi East 3.5 mph - N/A Fog Fog
9:15 AM 53.6 °F 53.6 °F 100% 30.23 in 0.2 mi NE 5.8 mph - N/A Fog Fog
9:35 AM 53.6 °F 53.6 °F 100% 30.24 in 0.8 mi East 4.6 mph - N/A   Overcast
9:55 AM 55.4 °F 53.6 °F 94% 30.24 in 2.0 mi Calm Calm - N/A   Overcast
10:15 AM 55.4 °F 55.4 °F 100% 30.24 in 3.0 mi East 3.5 mph - N/A   Overcast
10:35 AM 55.4 °F 55.4 °F 100% 30.24 in 4.0 mi ENE 5.8 mph - N/A   Overcast
10:55 AM 55.4 °F 55.4 °F 100% 30.24 in 5.0 mi Calm Calm - N/A   Overcast
11:15 AM 57.2 °F 55.4 °F 94% 30.24 in 9.0 mi Calm Calm - N/A   Overcast
11:35 AM 57.2 °F 57.2 °F 100% 30.23 in 8.0 mi Calm Calm - N/A   Overcast
11:55 AM 59.0 °F 55.4 °F 88% 30.23 in 10.0 mi East 3.5 mph - N/A   Overcast
12:15 PM 62.6 °F 55.4 °F 77% 30.23 in 10.0 mi Calm Calm - N/A   Scattered Clouds
12:35 PM 62.6 °F 55.4 °F 77% 30.22 in 9.0 mi Calm Calm - N/A   Scattered Clouds
12:55 PM 64.4 °F 55.4 °F 73% 30.21 in 10.0 mi Calm Calm - N/A   Partly Cloudy
1:15 PM 66.2 °F 55.4 °F 68% 30.21 in 10.0 mi Calm Calm - N/A   Partly Cloudy
1:35 PM 66.2 °F 55.4 °F 68% 30.20 in 10.0 mi SW 3.5 mph - N/A   Clear
1:55 PM 66.2 °F 55.4 °F 68% 30.20 in 10.0 mi Calm Calm - N/A   Clear
2:15 PM 66.2 °F 53.6 °F 64% 30.19 in 10.0 mi Calm Calm - N/A   Partly Cloudy
2:35 PM 68.0 °F 55.4 °F 64% 30.19 in 10.0 mi Calm Calm - N/A   Partly Cloudy
2:55 PM 68.0 °F 53.6 °F 60% 30.19 in 10.0 mi Calm Calm - N/A   Scattered Clouds
3:15 PM 68.0 °F 53.6 °F 60% 30.18 in 9.0 mi Calm Calm - N/A   Scattered Clouds
3:35 PM 68.0 °F 53.6 °F 60% 30.19 in 10.0 mi Calm Calm - N/A   Partly Cloudy
3:55 PM 68.0 °F 55.4 °F 64% 30.19 in 10.0 mi Calm Calm - N/A   Mostly Cloudy
4:15 PM 68.0 °F 53.6 °F 60% 30.19 in 10.0 mi Calm Calm - N/A   Mostly Cloudy
4:35 PM 68.0 °F 53.6 °F 60% 30.20 in 10.0 mi Calm Calm - N/A   Partly Cloudy
4:55 PM 66.2 °F 55.4 °F 68% 30.19 in 10.0 mi Calm Calm - N/A   Mostly Cloudy
5:15 PM 66.2 °F 57.2 °F 73% 30.19 in 10.0 mi Calm Calm - N/A   Overcast
5:35 PM 64.4 °F 57.2 °F 77% 30.20 in 10.0 mi Calm Calm - N/A   Mostly Cloudy
5:55 PM 64.4 °F 57.2 °F 77% 30.20 in 10.0 mi Calm Calm - N/A   Overcast
6:15 PM 62.6 °F 57.2 °F 82% 30.20 in 10.0 mi Calm Calm - N/A   Overcast
6:35 PM 62.6 °F 59.0 °F 88% 30.20 in 10.0 mi Calm Calm - N/A   Overcast
6:55 PM 62.6 °F 59.0 °F 88% 30.21 in 10.0 mi Calm Calm - N/A   Overcast
7:15 PM 60.8 °F 59.0 °F 94% 30.21 in 10.0 mi Calm Calm - N/A   Overcast
7:35 PM 60.8 °F 57.2 °F 88% 30.22 in 10.0 mi Calm Calm - N/A   Overcast
7:55 PM 60.8 °F 57.2 °F 88% 30.22 in 10.0 mi Calm Calm - N/A   Overcast
8:15 PM 60.8 °F 57.2 °F 88% 30.22 in 10.0 mi East 3.5 mph - N/A   Overcast
8:35 PM 60.8 °F 57.2 °F 88% 30.22 in 10.0 mi Calm Calm - N/A   Overcast
8:55 PM 60.8 °F 57.2 °F 88% 30.22 in 10.0 mi Calm Calm - N/A   Mostly Cloudy
9:15 PM 59.0 °F 57.2 °F 94% 30.23 in 9.0 mi Calm Calm - N/A   Mostly Cloudy
9:35 PM 59.0 °F 57.2 °F 94% 30.23 in 9.0 mi Calm Calm - N/A   Overcast
9:55 PM 59.0 °F 57.2 °F 94% 30.23 in 9.0 mi Calm Calm - N/A   Overcast
10:15 PM 59.0 °F 57.2 °F 94% 30.24 in 8.0 mi Calm Calm - N/A   Scattered Clouds
10:35 PM 57.2 °F 55.4 °F 94% 30.24 in 6.0 mi Calm Calm - N/A   Clear
10:55 PM 55.4 °F 55.4 °F 100% 30.24 in 6.0 mi Calm Calm - N/A   Clear
11:15 PM 55.4 °F 55.4 °F 100% 30.24 in 5.0 mi Calm Calm - N/A   Clear
11:35 PM 55.4 °F 55.4 °F 100% 30.24 in 3.0 mi Calm Calm - N/A   Clear
11:55 PM 55.4 °F 53.6 °F 94% 30.24 in 5.0 mi Calm Calm - N/A   Clear